Theta_e
318 318 318 318 317 316 315 315 315 316 316 315 316 316 316 316 316 311 304 310 314 319 322 313 312 312 307 304 304 303 298 295 296 296 298 303 302 305 307 306 307 320 329 337 349
317 317 317 318 317 316 316 314 314 315 315 315 315 314 315 316 310 305 313 319 320 321 316 309 307 307 304 303 302 300 296 296 300 301 300 302 302 303 304 304 305 308 340 347 347
314 315 315 315 315 314 314 313 314 314 314 314 315 314 315 315 300 300 322 323 326 321 316 311 310 307 301 300 300 299 295 299 299 301 302 301 302 304 303 302 305 305 309 343 346
313 312 312 312 312 312 312 312 313 313 314 314 314 314 314 309 291 304 323 320 326 320 315 309 307 303 301 297 299 295 298 300 301 302 302 301 303 302 303 304 307 307 308 311 343
312 312 312 312 312 312 312 312 312 312 312 312 313 313 308 299 299 310 316 315 321 317 314 307 304 302 299 299 299 295 297 298 300 301 301 302 300 301 302 306 308 308 308 309 312
311 311 311 311 311 311 312 312 312 311 311 312 312 311 302 291 306 309 309 310 317 315 315 310 306 306 302 299 298 299 299 299 300 300 300 298 299 301 302 306 306 306 308 309 310
311 311 311 311 311 311 312 312 312 311 311 312 312 307 300 296 307 309 308 307 309 314 310 314 311 306 305 299 301 299 296 298 298 298 298 300 296 297 302 304 304 306 307 309 310
312 311 310 310 310 311 311 311 311 311 313 313 313 307 296 307 310 308 309 306 308 308 306 311 314 308 304 304 299 296 296 294 301 299 299 299 294 300 303 302 302 305 306 308 310
311 311 311 310 310 310 311 310 311 312 311 311 307 302 296 308 304 310 311 306 307 307 307 309 313 306 304 299 296 296 293 291 296 299 299 297 296 300 303 302 303 305 305 307 309
311 310 310 310 310 310 310 309 310 311 310 310 307 296 300 302 308 311 312 309 306 304 301 300 305 301 300 298 291 293 290 293 293 296 297 296 296 300 301 301 302 304 306 307 309
310 310 310 310 310 309 306 303 297 297 304 300 299 299 300 306 309 308 311 308 305 301 294 298 295 293 297 299 299 295 295 293 295 300 296 296 297 299 302 302 302 303 305 307 308
309 310 310 310 310 309 305 298 297 299 292 299 300 301 304 305 297 301 311 302 303 294 298 297 292 298 300 299 298 297 295 293 295 298 296 296 296 300 302 303 303 304 305 306 309
310 309 310 310 309 303 300 298 303 303 293 294 299 299 302 302 297 300 305 303 299 297 295 293 296 300 299 297 295 296 294 295 293 296 298 296 294 298 302 304 305 306 308 309 309
309 309 309 309 302 301 298 302 304 304 289 290 298 302 305 304 299 306 308 303 298 295 297 296 298 297 298 295 297 292 297 296 294 292 288 297 287 296 299 301 303 305 307 307 309
309 309 309 307 301 298 299 303 305 301 279 291 299 309 306 300 300 303 309 303 297 296 297 294 296 294 296 297 299 294 299 296 295 293 292 292 289 294 299 298 301 305 307 309 310
308 308 308 303 303 302 304 303 302 287 278 289 297 296 296 298 298 302 303 305 303 298 298 297 302 300 297 299 301 301 298 297 296 294 286 291 290 291 295 298 302 305 307 309 309
308 308 304 304 299 303 303 301 288 281 290 289 292 295 294 294 295 297 299 297 294 289 291 295 296 300 301 297 300 298 295 287 285 285 285 294 290 293 299 302 302 303 307 311 312
306 305 301 304 305 305 302 295 282 286 287 295 293 293 291 295 296 296 295 293 299 297 293 289 287 296 301 298 295 295 296 288 281 283 287 293 288 293 301 304 308 310 311 319 323
304 300 302 305 305 304 299 286 285 288 293 291 292 289 290 293 292 293 294 294 297 299 291 290 289 299 301 301 300 295 292 298 290 292 287 290 294 299 306 306 309 314 318 321 321
299 296 299 306 307 304 296 288 291 296 295 292 286 290 286 289 289 291 291 297 296 300 303 296 289 297 300 301 300 298 300 290 291 283 282 288 290 292 302 304 311 314 316 317 321
297 293 301 304 307 302 289 290 292 295 293 290 289 288 289 288 289 289 291 295 298 298 301 298 295 293 298 295 294 295 293 295 295 292 286 284 289 303 303 306 308 310 313 315 318
296 287 301 304 293 293 288 288 292 290 293 293 293 292 290 290 289 289 289 294 300 300 294 298 293 289 292 299 302 300 297 297 290 288 291 291 292 306 306 305 310 310 311 311 315
291 292 301 300 286 286 288 287 288 289 290 291 290 292 293 288 286 291 292 298 299 296 294 296 287 285 286 293 299 296 298 298 297 296 289 289 293 305 305 306 309 308 311 312 313
293 286 293 293 292 286 284 284 285 291 290 291 290 292 288 287 291 289 289 294 298 296 300 299 290 290 288 291 296 294 296 298 296 292 292 292 295 300 302 304 307 307 309 310 309
292 288 290 283 285 286 286 285 284 284 290 291 289 289 285 284 286 288 291 291 294 298 297 297 287 292 295 297 297 296 296 296 295 296 292 295 296 301 303 306 306 307 308 307 307
289 287 290 286 287 286 285 284 284 284 285 286 285 289 288 284 287 285 288 288 289 294 291 294 291 293 291 296 296 294 296 297 297 297 297 297 298 307 308 309 307 306 306 306 306
296 296 290 286 285 283 284 284 284 286 288 290 287 288 286 289 293 294 295 294 291 289 289 290 292 290 287 294 295 290 295 296 297 299 299 295 301 306 306 307 307 306 306 304 304
Wind_Speed
15 14 13 12 12 13 14 15 15 16 15 16 16 16 16 18 20 16 13 10 8 9 11 5 4 5 3 5 3 3 6 12 13 9 5 3 3 2 1 2 4 3 3 5 10
18 18 18 17 15 14 14 16 17 16 17 17 16 17 17 18 19 16 13 15 15 6 9 16 12 8 5 7 6 8 8 12 5 9 3 4 1 3 2 3 2 3 3 5 9
19 19 19 19 19 18 18 17 17 16 15 14 17 18 18 16 8 6 6 10 13 14 4 5 11 12 7 4 9 7 12 10 7 9 5 4 5 2 5 8 5 3 8 0 7
19 19 19 20 21 21 20 19 18 17 16 14 12 13 17 6 8 2 4 14 9 12 9 7 10 12 11 11 8 8 11 14 8 10 9 10 4 8 9 10 3 8 7 6 7
19 20 20 20 21 22 22 23 23 21 18 16 13 10 6 5 13 5 11 8 11 12 11 14 15 10 13 10 8 13 9 8 16 16 16 12 14 13 16 15 12 16 13 12 10
19 19 20 20 20 20 20 19 20 22 22 18 14 9 4 10 4 5 4 3 8 11 9 9 11 11 10 7 16 3 16 17 11 9 6 12 15 15 13 17 14 10 12 9 10
18 19 20 21 21 21 21 21 21 23 22 20 14 6 10 22 4 2 3 0 3 3 7 12 5 13 6 4 10 4 8 10 11 7 10 12 25 23 16 17 14 15 17 15 13
19 19 22 23 23 23 24 24 24 25 20 14 11 4 11 5 6 12 13 13 12 10 7 8 10 6 6 1 3 6 5 15 11 13 6 12 27 2 12 18 19 16 15 14 16
21 20 21 24 25 25 25 26 25 10 5 2 6 6 11 6 6 6 10 5 6 8 6 5 7 8 7 8 7 8 12 10 10 11 12 18 14 3 10 16 14 13 12 13 14
23 22 22 24 25 25 25 25 13 1 6 6 3 3 7 1 1 4 7 7 2 9 8 8 7 10 11 14 16 11 7 11 10 8 16 20 22 18 8 8 12 14 15 13 14
26 24 24 24 25 22 21 6 2 3 6 9 4 8 12 7 6 3 5 6 7 8 12 17 13 23 21 19 12 3 15 13 6 17 11 18 18 16 17 16 17 15 15 15 16
27 27 27 25 25 24 3 2 3 2 13 15 21 22 21 12 9 7 7 5 7 8 10 9 24 15 13 16 17 17 16 13 8 12 8 14 16 11 13 14 16 16 16 17 15
25 25 26 25 23 3 2 6 4 4 7 7 6 5 2 9 7 5 12 8 9 12 16 19 5 20 18 17 19 20 20 16 12 6 13 12 22 18 14 17 12 17 17 17 18
26 27 25 25 6 3 4 2 5 3 6 4 4 3 5 3 5 8 9 6 8 18 12 16 21 9 21 21 18 18 15 15 15 12 16 12 12 14 11 17 17 16 17 17 17
29 29 28 12 5 3 2 2 5 3 6 3 4 9 5 4 12 9 7 10 11 11 13 10 10 24 19 20 19 13 13 17 16 15 12 15 12 15 7 15 15 15 14 17 19
30 30 23 2 2 3 6 7 3 3 8 3 3 7 12 11 10 4 8 7 4 9 18 18 8 13 20 18 18 9 11 15 13 13 16 19 14 13 16 16 15 13 10 13 14
30 31 8 2 3 1 4 2 4 6 6 5 7 12 19 18 13 10 12 10 9 7 15 18 21 13 12 13 16 16 14 5 8 9 17 9 14 19 8 9 6 11 14 5 5
34 23 3 3 3 4 3 3 7 2 2 6 8 21 10 10 7 10 8 13 17 17 7 11 10 21 19 23 12 23 18 8 11 11 10 14 13 15 12 22 10 8 4 4 5
26 6 1 5 2 1 3 5 5 3 3 8 15 11 5 4 7 8 9 14 8 19 12 8 11 7 18 19 20 18 21 11 5 2 7 13 17 10 4 5 4 6 6 7 8
7 5 3 3 0 3 3 7 7 4 8 9 9 5 7 11 12 7 4 7 4 13 18 8 9 13 18 20 21 11 18 12 4 8 10 8 16 9 9 5 5 7 6 8 11
3 4 3 10 2 3 4 6 6 11 16 7 10 13 20 18 13 12 7 14 13 13 9 11 9 3 11 16 20 13 11 8 9 6 8 7 7 5 5 2 5 6 9 9 13
5 5 5 7 3 3 4 12 15 13 16 13 11 16 13 11 9 5 9 10 12 13 11 6 2 6 16 12 20 23 17 14 9 9 6 7 4 2 1 3 7 9 12 13 16
7 5 4 5 3 4 9 13 18 13 12 6 8 8 7 4 7 8 7 5 14 9 6 2 5 4 5 0 7 24 21 17 10 6 11 7 3 4 5 7 10 11 12 16 18
4 5 4 3 2 8 11 13 14 14 18 13 9 9 3 9 5 8 17 10 14 18 23 10 7 5 4 4 12 20 24 24 19 8 8 13 4 6 8 11 12 12 13 16 16
3 2 2 7 9 16 15 17 19 18 6 9 7 9 12 6 17 6 15 17 10 11 16 5 1 3 5 3 13 17 22 24 25 18 12 7 10 12 11 13 13 14 16 16 15
4 4 3 12 11 13 12 14 18 17 12 15 8 17 17 10 15 22 18 2 7 5 14 13 2 4 3 7 9 14 18 23 24 22 16 14 7 9 12 15 15 15 16 15 16
2 2 3 6 7 11 8 16 21 22 11 11 18 17 19 18 14 19 19 20 19 17 10 6 3 2 2 11 6 8 20 20 19 21 19 14 8 19 14 17 22 17 16 15 10
Wind_Direction
354 347 347 342 345 343 339 334 333 329 322 323 322 320 318 314 309 296 253 242 195 226 191 138 142 149 149 154 157 169 222 228 231 206 206 188 201 107 305 230 306 358 308 325 142
351 349 345 341 336 335 331 325 320 315 318 319 320 319 320 321 305 264 249 254 240 207 177 191 192 154 190 182 180 211 224 218 228 222 210 168 251 331 308 327 198 196 66 113 154
345 342 339 336 332 332 329 323 318 315 311 313 316 321 325 325 291 233 137 348 187 198 213 198 191 179 202 187 184 188 230 219 203 218 232 229 259 246 268 269 239 84 17 171 172
347 344 340 336 333 331 328 323 319 314 311 305 308 319 322 315 293 55 326 340 148 172 179 170 177 182 200 202 198 230 233 234 227 221 235 225 242 252 237 245 209 305 318 300 231
345 342 339 336 332 329 327 325 321 317 315 314 304 315 320 270 252 307 348 345 143 162 183 177 179 185 196 203 195 231 231 231 244 255 261 266 243 256 258 252 267 289 286 267 250
342 339 335 331 328 325 322 315 309 307 306 304 303 303 269 260 255 255 76 86 169 177 182 194 198 193 212 211 208 229 229 243 250 245 248 262 263 230 244 258 251 247 260 262 242
337 334 330 328 324 322 319 312 308 302 296 291 285 277 251 254 278 108 298 357 133 195 194 207 215 195 180 214 229 233 255 240 229 237 250 262 269 238 231 244 249 250 261 265 245
336 333 330 327 324 324 320 316 309 303 294 276 241 235 256 246 263 276 263 262 242 253 259 300 229 229 221 159 163 209 218 240 223 210 218 197 257 308 215 212 231 238 242 248 250
337 334 327 325 324 325 321 317 314 324 315 169 153 192 260 290 246 265 209 219 208 202 200 271 182 216 190 212 217 205 235 226 252 214 205 202 264 315 196 195 216 228 231 231 245
336 334 326 322 322 323 322 313 294 269 93 134 120 218 240 29 210 124 158 181 141 160 183 197 202 211 209 198 214 213 220 237 242 193 221 217 242 252 239 212 235 249 253 243 231
333 330 325 323 321 326 330 330 286 211 215 229 229 260 287 290 321 211 156 169 136 176 182 188 201 211 204 214 224 218 231 238 235 239 243 239 252 247 257 242 239 243 250 248 248
331 329 326 323 320 325 307 334 312 337 298 251 255 261 266 275 291 269 182 200 186 206 179 181 226 217 211 206 214 234 245 234 270 267 255 269 267 256 251 257 233 231 232 242 244
328 325 323 320 323 350 319 279 327 306 278 290 215 222 280 155 212 257 196 206 217 217 206 219 217 199 197 201 211 225 234 238 240 262 268 280 274 259 243 252 236 234 232 231 235
328 326 327 326 305 338 292 145 355 277 287 256 220 189 154 179 240 204 204 209 218 236 215 239 240 226 211 218 205 220 221 224 231 235 246 232 270 248 250 248 249 235 232 230 235
331 332 331 334 300 287 344 324 340 212 290 70 122 145 149 284 302 213 186 184 245 226 199 216 198 204 204 211 206 231 204 208 216 223 241 222 252 264 242 248 247 258 240 237 234
330 331 333 12 206 273 285 286 222 239 251 356 81 351 332 313 283 215 184 207 237 228 238 253 231 214 225 218 206 199 232 223 229 231 239 232 233 264 239 246 251 260 277 255 239
332 330 326 158 339 297 329 235 272 230 350 5 338 334 320 295 292 247 207 195 192 221 226 233 236 229 216 216 211 210 203 173 199 209 237 195 219 242 240 235 228 296 303 299 215
331 329 318 259 295 315 280 244 247 329 303 0 335 323 302 338 326 337 283 259 227 238 267 223 231 213 212 227 209 203 197 199 206 205 217 204 231 236 228 257 275 269 273 162 151
328 334 284 7 50 222 267 233 270 300 345 321 317 290 284 311 337 312 285 261 246 215 227 219 237 235 218 203 198 189 209 202 294 244 219 212 244 260 209 238 166 141 149 120 121
328 325 305 344 139 268 250 248 266 297 328 313 303 259 276 299 314 298 295 278 241 226 225 225 256 211 207 210 203 193 181 188 182 216 218 213 234 236 192 192 145 136 133 118 111
343 336 16 326 229 224 248 276 303 323 320 293 284 276 287 293 267 270 269 293 266 327 256 237 218 267 185 194 185 191 185 188 176 244 229 236 213 340 264 149 143 138 112 97 105
340 315 2 328 321 1 324 328 317 300 302 288 269 266 277 319 285 230 246 241 342 336 283 236 301 204 207 205 201 199 177 190 199 187 235 280 235 11 38 139 149 124 113 106 100
339 299 335 318 9 333 312 308 293 282 302 289 295 312 3 289 296 283 289 294 325 352 311 306 182 171 156 74 181 199 198 195 200 169 215 219 156 121 131 138 113 114 123 111 106
327 328 328 22 15 344 329 312 308 301 298 330 282 298 329 298 266 294 294 303 334 308 295 247 227 245 160 170 165 189 199 198 199 200 183 230 179 182 164 149 121 122 116 108 106
1 351 10 314 326 318 306 298 298 306 317 300 300 325 339 287 310 254 327 312 304 318 334 150 198 233 248 289 187 184 194 198 206 204 212 200 215 188 173 149 135 124 118 116 118
360 333 326 292 289 308 320 313 314 325 329 311 285 311 312 283 280 290 294 267 264 310 339 329 51 194 251 248 195 195 203 206 204 200 213 226 203 145 154 130 130 131 126 125 126
329 290 270 277 298 309 311 314 309 307 299 296 301 295 295 292 293 288 276 270 252 273 285 271 303 334 213 201 196 223 191 201 200 201 208 206 167 148 158 154 136 134 129 120 115